Location: Alpha Ridge Park
(39.3209°N, 76.9128°W)
Time: 00:05:54
(UTC-05:00)

X-37B - Visible Passes

Search period start: 25 January 2022 00:00
Search period end: 04 February 2022 00:00
Orbit: 334 x 337 km, 45.0° (Epoch: 11 January)

Date Brightness Start Highest point End Pass type
(mag) Time Alt. Az. Time Alt. Az. Time Alt. Az.
25 Jan 2.7 18:02:21 10° SSE 18:03:36 12° SE 18:04:51 10° ESE visible
25 Jan 3.6 19:35:53 10° WSW 19:36:23 14° WSW 19:36:23 14° WSW visible
26 Jan 1.3 18:21:12 10° SSW 18:23:47 33° SSE 18:24:58 23° E visible
27 Jan 0.2 18:41:19 10° WSW 18:44:09 88° NNW 18:44:42 53° ENE visible
28 Jan 1.4 19:01:57 10° W 19:04:24 38° NW 19:04:24 38° NW visible
29 Jan 2.8 19:22:48 10° WNW 19:24:02 19° NW 19:24:02 19° NW visible
30 Jan 1.2 18:07:23 10° W 18:10:05 40° NNW 18:12:26 13° NE visible
30 Jan 3.8 19:43:36 10° WNW 19:43:39 10° NW 19:43:39 10° NW visible
31 Jan 1.8 18:28:14 10° WNW 18:30:43 27° N 18:32:02 19° NE visible
01 Feb 1.9 18:49:01 10° WNW 18:51:25 24° N 18:51:37 24° N visible
02 Feb 2.2 19:09:35 10° NW 19:11:15 23° NNW 19:11:15 23° NNW visible
03 Feb 1.9 17:54:27 10° WNW 17:56:51 24° N 17:59:14 10° ENE visible
03 Feb 3.0 19:29:58 10° WNW 19:30:54 18° NW 19:30:54 18° NW visible
